[[{"header":{"parameterUnit":"m.s-1","parameterCategory":1,"la1":30.2991,"la2":30.254,"lo1":-89.0895,"lo2":-89.0444,"dy":0.0017,"dx":0.0017,"nx":28,"ny":28,"refTime":"2025-04-06T09:00:00:Z","depth":0,"parameterNumber":2,"parameterNumberName":"U-component_of_WINDS"},"data":[0,0,0,0,0,0,0,0,0,0,0,0,0,0,0,0,0,0,0,0,0,0,0,0,0,0,0,0,0,0,0,0,0,0,0,0,0,0,0,0,0,0,0,0,0,0,0,0,0,0,0,0,0,0,0,0,0,0,3.6845,3.6848,0,3.7089,3.7092,3.7095,3.7136,3.7134,3.7132,3.713,3.7383,3.7392,3.74,0,0,0,0,0,0,0,0,0,0,0,0,0,3.6418,3.6426,3.6845,3.6848,3.6851,3.7089,3.7092,3.7096,3.7136,3.7134,3.7131,3.7129,3.7381,3.7391,3.7401,0,0,0,0,0,0,0,0,0,0,0,0,0,3.6627,3.6428,3.6844,3.69,3.6907,3.7088,3.7092,3.7096,3.7137,3.7134,3.713,3.7128,3.7377,3.739,3.7403,3.7546,0,0,3.7443,3.7448,0,0,0,0,0,0,0,0,3.6615,3.6643,3.6889,3.6896,3.6905,3.7079,3.7035,3.7247,3.7138,3.705,3.713,3.7126,3.7285,3.7305,3.7358,3.7558,3.7569,3.7444,3.7452,3.7457,3.7461,0,0,0,0,0,0,0,3.6601,3.6633,3.6942,3.6892,3.6902,3.6914,3.694,3.7075,3.7182,3.7057,3.7061,3.7089,3.7289,3.7345,3.7364,3.7573,3.7443,3.7455,3.7463,3.7468,3.7905,3.7908,0,0,0,0,0,0,3.6576,3.662,3.6934,3.6949,3.6749,3.6924,3.6954,3.7026,3.7181,3.7201,3.7091,3.709,3.7325,3.7349,3.7373,3.7553,3.7457,3.7469,3.7477,3.7901,3.7905,3.791,0,0,0,0,0,0,3.6566,3.6603,3.6924,3.6786,3.6827,3.6935,3.7016,3.7033,3.7089,3.7206,3.7226,3.7129,3.7323,3.7355,3.7503,3.7562,3.7475,3.7487,3.7897,3.7902,3.7908,3.7911,0,0,0,0,0,0,3.6554,3.66,3.6654,3.6787,3.6835,3.7048,3.702,3.704,3.7111,3.7112,3.7247,3.7267,3.7323,3.7483,3.7516,3.7578,3.7497,3.7892,3.7899,3.7906,3.7906,3.7916,3.7925,0,0,0,0,0,3.6539,3.6646,3.6657,3.6695,3.6905,3.7052,3.7079,3.7141,3.7116,3.7173,3.7248,3.7263,3.755,3.7498,3.7535,3.7602,3.7888,3.7897,3.7905,3.7902,3.7914,3.7925,0,0,0,0,0,0,3.652,3.6665,3.6678,3.6831,3.6929,3.7058,3.7131,3.7152,3.7259,3.7255,3.7328,3.7358,3.7503,3.7568,3.7507,3.775,3.7718,3.7734,3.7703,3.7715,3.7724,3.7706,3.7508,0,0,0,0,0,3.6533,3.6638,3.676,3.6884,3.6932,3.7023,3.7089,3.7128,3.7233,3.7274,3.7361,3.7462,3.7576,3.7649,3.776,3.7916,3.7947,3.7981,3.799,3.7997,3.801,3.8099,3.8115,3.7937,3.7937,3.7937,0,0,3.6562,3.6654,3.6717,3.6882,3.6962,3.7072,3.7058,3.7174,3.7256,3.7293,3.7437,3.7504,3.7623,3.7776,3.7847,3.7834,3.8066,3.8008,3.8012,3.8022,3.8109,3.8126,3.8141,3.7943,3.7942,3.7941,0,0,3.6671,3.6751,3.6863,3.6943,3.7064,3.7124,3.7151,3.7278,3.7324,3.747,3.75,3.76,3.7793,3.7877,3.7944,3.8086,3.8104,3.812,3.8168,3.8254,3.8268,3.828,3.8331,3.8349,3.8133,3.8133,3.8133,0,3.6692,3.6857,3.6919,3.7033,3.7106,3.7143,3.7258,3.7334,3.7485,3.7535,3.7518,3.7762,3.7844,3.8017,3.8052,3.8105,3.8139,3.8105,3.826,3.8274,3.8287,3.8336,3.8355,3.8134,3.8134,3.8134,3.8134,0,3.6877,3.6991,3.7067,3.7211,3.7292,3.7407,3.7487,3.7562,3.7594,3.7657,3.7806,3.7906,3.8038,3.8082,3.8115,3.8261,3.8249,3.8245,3.8214,3.8304,3.8352,3.8371,3.8136,3.8135,3.8135,3.8135,0,0,3.6981,3.7158,3.7185,3.7251,3.7387,3.7477,3.7594,3.7722,3.7785,3.7889,3.7989,3.8152,3.815,3.8227,3.8269,3.8344,3.8451,3.8332,3.8336,3.8351,3.8619,3.8621,3.8641,3.8463,3.8467,3.847,3.8609,0,3.7107,3.7314,3.7373,3.7549,3.7655,3.7693,3.7795,3.789,3.7952,3.8052,3.8121,3.8235,3.8223,3.827,3.8345,3.8421,3.8505,3.8412,3.8559,3.8563,3.8528,3.8666,3.8669,3.8795,3.8628,3.8631,3.8633,0,3.7281,3.7386,3.7571,3.7695,3.7742,3.7832,3.7954,3.805,3.8159,3.8199,3.8285,3.8321,3.8446,3.8407,3.8581,3.8516,3.858,3.8626,3.8633,3.8649,3.8604,3.8687,3.8837,3.8855,3.8663,3.8661,3.8659,0,3.7338,3.7527,3.7662,3.7718,3.7865,3.7927,3.7992,3.8098,3.8172,3.8279,3.8328,3.8449,3.8516,3.8609,3.8678,3.8643,3.8846,3.8813,3.8884,3.8882,3.8925,3.8921,3.9087,3.8965,3.8965,3.8964,3.8964,0,3.7472,3.7585,3.769,3.7774,3.7901,3.7969,3.8094,3.816,3.8255,3.8353,3.8393,3.8485,3.857,3.8673,3.8728,3.8864,3.8893,3.893,3.8943,3.8927,3.8922,3.897,3.8963,3.8969,3.8968,3.8967,3.8966,0,3.7558,3.7633,3.7784,3.791,3.7945,3.8033,3.8142,3.8226,3.8288,3.8412,3.8446,3.8545,3.8669,3.8746,3.8904,3.8941,3.9091,3.9101,3.9053,3.9059,3.9126,3.9118,3.9328,3.936,3.9216,3.9217,3.9218,0,3.7639,3.7726,3.7862,3.7929,3.7994,3.8103,3.8178,3.8249,3.8326,3.8457,3.8525,3.8651,3.8756,3.8952,3.904,3.9161,3.9175,3.924,3.9193,3.9174,3.9176,3.917,3.918,3.9247,3.9249,3.925,3.925,0,3.7775,3.7807,3.7913,3.8032,3.812,3.8217,3.8314,3.8368,3.8456,3.854,3.8667,3.8748,3.8908,3.9034,3.9163,3.9231,3.9256,3.9264,3.9287,3.9271,3.924,3.9259,3.9074,3.9259,3.9258,3.9258,3.9257,3.9257,3.7861,3.7941,3.8048,3.8165,3.8245,3.8335,3.842,3.8493,3.8599,3.8734,3.877,3.8903,3.9012,3.9187,3.9258,3.9364,3.9355,3.9388,3.9396,3.9404,3.9405,3.9223,3.9388,3.9387,3.9387,3.9387,3.9387,0,3.8,3.807,3.8177,3.8311,3.8403,3.8417,3.8526,3.8602,3.8718,3.8816,3.8918,3.9064,3.9186,3.9283,3.9408,3.9475,3.9489,3.9505,3.9501,3.9517,3.9405,3.9373,3.9491,3.9491,3.9491,3.9491,3.9491,3.9491,3.8082,3.8217,3.8263,3.8439,3.851,3.8639,3.87,3.8784,3.8863,3.9023,3.9124,3.9186,3.9284,3.9418,3.953,3.9556,3.9601,3.9614,3.9642,3.9536,3.9525,3.9514,3.9484,3.9623,3.9624,3.9745,3.9746,3.9747]},{"header":{"parameterUnit":"m.s-1","parameterCategory":1,"la1":30.2991,"la2":30.254,"lo1":-89.0895,"lo2":-89.0444,"dy":0.0017,"dx":0.0017,"nx":28,"ny":28,"refTime":"2025-04-06T09:00:00:Z","depth":0,"parameterNumber":3,"parameterNumberName":"V-component_of_WINDS"},"data":[0,0,0,0,0,0,0,0,0,0,0,0,0,0,0,0,0,0,0,0,0,0,0,0,0,0,0,0,0,0,0,0,0,0,0,0,0,0,0,0,0,0,0,0,0,0,0,0,0,0,0,0,0,0,0,0,0,0,-3.3634,-3.3636,0,-3.38,-3.3802,-3.3804,-3.3802,-3.38,-3.3798,-3.3796,-3.3967,-3.3973,-3.398,0,0,0,0,0,0,0,0,0,0,0,0,0,-3.3319,-3.3324,-3.3634,-3.3636,-3.3638,-3.38,-3.3802,-3.3804,-3.3803,-3.38,-3.3797,-3.3795,-3.3965,-3.3972,-3.398,0,0,0,0,0,0,0,0,0,0,0,0,0,-3.3467,-3.3326,-3.3634,-3.3657,-3.366,-3.3799,-3.3802,-3.3805,-3.3803,-3.38,-3.3797,-3.3793,-3.3962,-3.3972,-3.3981,-3.4109,0,0,-3.4012,-3.4016,0,0,0,0,0,0,0,0,-3.3459,-3.3479,-3.3651,-3.3655,-3.366,-3.3777,-3.3754,-3.3907,-3.3804,-3.3749,-3.3796,-3.3792,-3.3906,-3.3921,-3.3959,-3.4117,-3.4124,-3.4013,-3.4019,-3.4023,-3.4026,0,0,0,0,0,0,0,-3.3448,-3.3472,-3.37,-3.3654,-3.3659,-3.366,-3.3677,-3.3783,-3.3844,-3.3754,-3.3754,-3.3773,-3.3908,-3.395,-3.3963,-3.4126,-3.4012,-3.4021,-3.4027,-3.4031,-3.4399,-3.4403,0,0,0,0,0,0,-3.3433,-3.3463,-3.3694,-3.3705,-3.3549,-3.3668,-3.3688,-3.3743,-3.3843,-3.3855,-3.3776,-3.3773,-3.3934,-3.3952,-3.3969,-3.4126,-3.4023,-3.4032,-3.4038,-3.4395,-3.44,-3.4404,0,0,0,0,0,0,-3.3426,-3.3454,-3.3688,-3.3584,-3.3614,-3.3677,-3.3739,-3.3748,-3.3789,-3.386,-3.3871,-3.3807,-3.3932,-3.3955,-3.4074,-3.4132,-3.4037,-3.4046,-3.4391,-3.4397,-3.4402,-3.4439,0,0,0,0,0,0,-3.3417,-3.3451,-3.3499,-3.3585,-3.3619,-3.3789,-3.3742,-3.3753,-3.3806,-3.3803,-3.3892,-3.3903,-3.3931,-3.406,-3.4084,-3.4144,-3.4053,-3.4386,-3.4394,-3.44,-3.4433,-3.4446,-3.4456,0,0,0,0,0,-3.3406,-3.3503,-3.3502,-3.353,-3.3681,-3.3793,-3.3812,-3.3842,-3.3811,-3.386,-3.3906,-3.3901,-3.4122,-3.4072,-3.41,-3.4163,-3.4383,-3.4391,-3.44,-3.4428,-3.4443,-3.4456,0,0,0,0,0,0,-3.3422,-3.3514,-3.3514,-3.3642,-3.3709,-3.3792,-3.3855,-3.3857,-3.3935,-3.3929,-3.3964,-3.3984,-3.4103,-3.4145,-3.4088,-3.4292,-3.4248,-3.4263,-3.426,-3.4275,-3.4287,-3.4274,-3.4062,0,0,0,0,0,-3.344,-3.3523,-3.3599,-3.3705,-3.3739,-3.3791,-3.3841,-3.3859,-3.393,-3.3959,-3.4013,-3.4084,-3.4169,-3.4225,-3.4307,-3.444,-3.446,-3.4497,-3.4509,-3.4518,-3.453,-3.4605,-3.4623,-3.4433,-3.4433,-3.4432,0,0,-3.3479,-3.354,-3.359,-3.3709,-3.3764,-3.385,-3.3815,-3.3907,-3.3971,-3.3973,-3.4089,-3.4132,-3.4213,-3.434,-3.4398,-3.4378,-3.4587,-3.4529,-3.4536,-3.4543,-3.4616,-3.4634,-3.465,-3.4438,-3.4437,-3.4436,0,0,-3.3593,-3.3647,-3.3741,-3.3797,-3.388,-3.3915,-3.3938,-3.4021,-3.405,-3.4167,-3.4171,-3.4249,-3.4394,-3.4453,-3.4501,-3.4641,-3.4639,-3.4667,-3.4727,-3.48,-3.4815,-3.4828,-3.4879,-3.4897,-3.4679,-3.4679,-3.4679,0,-3.3631,-3.3759,-3.3789,-3.3882,-3.3936,-3.3942,-3.4039,-3.4091,-3.4197,-3.4235,-3.4211,-3.4396,-3.445,-3.4592,-3.4626,-3.4665,-3.4693,-3.4656,-3.481,-3.4824,-3.4837,-3.4886,-3.4905,-3.4682,-3.4681,-3.4681,-3.4681,0,-3.3802,-3.3891,-3.3958,-3.406,-3.4121,-3.4215,-3.4261,-3.432,-3.4333,-3.4371,-3.4491,-3.4558,-3.4654,-3.469,-3.4703,-3.4834,-3.4819,-3.4802,-3.4759,-3.4857,-3.4904,-3.4923,-3.4686,-3.4685,-3.4684,-3.4683,0,0,-3.3929,-3.4049,-3.4073,-3.412,-3.4214,-3.4284,-3.438,-3.4475,-3.4525,-3.4598,-3.468,-3.4805,-3.4791,-3.4846,-3.4866,-3.493,-3.5039,-3.4906,-3.4909,-3.4929,-3.5189,-3.5201,-3.5222,-3.5038,-3.5042,-3.5045,-3.5182,0,-3.4053,-3.4222,-3.4254,-3.4401,-3.4485,-3.4494,-3.4577,-3.4645,-3.4683,-3.4761,-3.4804,-3.4892,-3.4866,-3.49,-3.4964,-3.5012,-3.5091,-3.5002,-3.5116,-3.5119,-3.5095,-3.5246,-3.5259,-3.5385,-3.5201,-3.5204,-3.5206,0,-3.422,-3.4299,-3.4455,-3.4539,-3.4576,-3.465,-3.4741,-3.4815,-3.4892,-3.4916,-3.4979,-3.4993,-3.5094,-3.5047,-3.5187,-3.5126,-3.5175,-3.5206,-3.5212,-3.5223,-3.5168,-3.5262,-3.5426,-3.5445,-3.5235,-3.5233,-3.5231,0,-3.4298,-3.4443,-3.4556,-3.4596,-3.4697,-3.475,-3.4794,-3.4868,-3.4924,-3.5004,-3.5041,-3.5132,-3.5181,-3.5252,-3.5291,-3.5252,-3.5429,-3.5384,-3.5453,-3.5452,-3.5489,-3.5486,-3.5663,-3.552,-3.552,-3.552,-3.5519,0,-3.4434,-3.4529,-3.4592,-3.4661,-3.4769,-3.4806,-3.4912,-3.4956,-3.5022,-3.5101,-3.5115,-3.5189,-3.5235,-3.5316,-3.5347,-3.546,-3.5483,-3.5505,-3.5513,-3.5504,-3.5502,-3.5536,-3.5529,-3.5525,-3.5524,-3.5523,-3.5522,0,-3.4538,-3.4584,-3.4708,-3.4794,-3.4818,-3.4894,-3.4968,-3.5037,-3.5076,-3.5176,-3.5202,-3.5264,-3.5361,-3.5407,-3.5526,-3.5547,-3.5676,-3.5677,-3.5649,-3.5652,-3.5718,-3.5712,-3.5924,-3.5954,-3.5791,-3.5792,-3.5794,0,-3.4621,-3.4695,-3.479,-3.4844,-3.489,-3.4976,-3.5034,-3.5074,-3.5133,-3.5229,-3.5286,-3.5383,-3.5463,-3.5617,-3.5674,-3.5766,-3.577,-3.5838,-3.5784,-3.5774,-3.5772,-3.5767,-3.5775,-3.5848,-3.5849,-3.5851,-3.5852,0,-3.4765,-3.4784,-3.4866,-3.4958,-3.5026,-3.5099,-3.5172,-3.5215,-3.5267,-3.5334,-3.5433,-3.5495,-3.5618,-3.5715,-3.5812,-3.5859,-3.5865,-3.5869,-3.5889,-3.5882,-3.5863,-3.5875,-3.5677,-3.5863,-3.5862,-3.5861,-3.5861,-3.586,-3.4862,-3.4928,-3.5006,-3.5098,-3.5157,-3.5225,-3.5294,-3.5343,-3.5426,-3.5529,-3.5548,-3.5654,-3.5732,-3.5862,-3.5913,-3.5998,-3.5982,-3.6012,-3.6019,-3.6026,-3.603,-3.585,-3.6015,-3.6015,-3.6015,-3.6014,-3.6014,0,-3.5006,-3.5057,-3.5141,-3.5243,-3.5315,-3.5315,-3.5396,-3.5457,-3.555,-3.5622,-3.5701,-3.5816,-3.5911,-3.5976,-3.6073,-3.6128,-3.6133,-3.6152,-3.6148,-3.6159,-3.6038,-3.6011,-3.6146,-3.6146,-3.6146,-3.6146,-3.6146,-3.6146,-3.509,-3.5203,-3.5233,-3.5376,-3.5427,-3.553,-3.5577,-3.5641,-3.5699,-3.5827,-3.5906,-3.5947,-3.6018,-3.612,-3.6208,-3.6225,-3.626,-3.6279,-3.6296,-3.6181,-3.6168,-3.6154,-3.6129,-3.6287,-3.6287,-3.641,-3.6411,-3.6412]}]]